Flag for Germany Weather past 2 weeks in Berlin, Berlin, Germany

Now
49 °F

Cool.


Feels Like: 49 °F
Forecast: 53 / 71 °F
Wind: 1 mph from Southwest

Location: Berlin-Tempelhof

Current Time: Aug 28, 2014 at 6:18:43 AM

Latest Report: Aug 28, 2014 at 6:00 AM


Visibility: N/A

Pressure: 30.06 "Hg

Humidity: 87%

Dew point: 46 °F

Location of BerlinLocation

Historic Weather in Berlin — Graph

°F

Berlin temperature yesterday

Maximum temperature yesterday: 70 °F (at 5:00 PM)
Minimum temperature yesterday: 49 °F (at 4:00 AM)
Average temperature yesterday: 60 °F

Past Weeks' High & Low Weather Summary

 TemperatureHumidityPressure
High76 °F (Aug 13, 1:00 PM)93% (Aug 14, 1:00 AM)30.06 "Hg (Aug 14, 1:00 AM)
Low48 °F (Aug 25, 6:00 AM)32% (Aug 22, 6:00 PM)29.61 "Hg (Aug 18, 4:00 PM)
Average61 °F65%29.87 "Hg
* Reported Aug 13 5:00 AM — Aug 28 5:00 AM, Berlin, Weather by CustomWeather, © 2014

Note: Actual official high and low records may vary slightly from our data, if they occured in-between our weather recording intervals... More about our weather records

Advertising

Berlin weather history for previous 24 hours

 ConditionsComfort  
Time TempWeatherWind HumidityBarometerVisibility
5:00 AM
Aug 28
49 °FCool.1 mph84%30.06 "HgN/A
4:00 AM51 °FCool.1 mph78%30.05 "HgN/A
3:00 AM52 °FCool.1 mph79%30.05 "HgN/A
2:00 AM54 °FCool.1 mph74%30.05 "HgN/A
1:00 AM54 °FCool.1 mph72%30.05 "HgN/A
12:00 AM57 °FCool.1 mph67%30.04 "HgN/A
10:00 PM
Aug 27
61 °FRefreshingly cool.2 mph56%30.03 "HgN/A
9:00 PM64 °FMild.2 mph50%30.01 "HgN/A
8:00 PM66 °FMild.6 mph43%30.00 "HgN/A
7:00 PM69 °FMild.7 mph39%29.98 "HgN/A
6:00 PM70 °FMild.6 mph34%29.97 "HgN/A
5:00 PM70 °FMild.7 mph32%29.97 "HgN/A
4:00 PM69 °FMild.6 mph39%29.98 "HgN/A
3:00 PM70 °FMild.10 mph43%29.97 "HgN/A
2:00 PM70 °FMild.7 mph38%29.96 "HgN/A
1:00 PM68 °FMild.6 mph41%29.96 "HgN/A
12:00 PM67 °FMild.6 mph49%29.96 "HgN/A
11:00 AM65 °FMild.5 mph57%29.94 "HgN/A
10:00 AM61 °FCool.3 mph70%29.93 "HgN/A
9:00 AM58 °FCool.2 mph79%29.92 "HgN/A
8:00 AM54 °FCool.2 mph88%29.90 "HgN/A
7:00 AM50 °FCool.2 mph90%29.88 "HgN/A
6:00 AM49 °FCool.2 mph88%29.86 "HgN/A
Weather by CustomWeather, © 2014

See weather overviewHow to use our weather pages